Location: Martin Dies, Jr. State Park
(30.8429°N, 94.1720°W)
Time: 15:51:50
(UTC-06:00)

ISS - Pass Details

Date: 14 November 2019
Orbit: 411 x 421 km, 51.6° (Epoch: 10 December)

Event Time Altitude Azimuth Distance (km) Brightness Sun altitude
Exits shadow 04:11:56 10° 79° (E) 1,484 -0.2 -32.3°
Drops below altitude 10° 04:12:00 10° 80° (E) 1,500 -0.1 -32.3°
Sets 04:14:32 0° 101° (E) 2,338 1.1 -31.7°
